Location: L�Ave Maria
(50.7161°N, 1.5911°E)
Time: 00:30:29
(UTC+00:00)

Cosmos 2221 - Pass Details

Date: 10 July 2020
Orbit: 592 x 616 km, 82.5° (Epoch: 03 August)

Event Time Altitude Azimuth Distance (km) Brightness Sun altitude
Rises 21:55:56 0° 343° (NNW) 2,893 7.8 -12.3°
Reaches altitude 10° 21:58:16 10° 336° (NNW) 1,980 6.7 -12.5°
Maximum altitude 22:02:21 40° 268° (W) 912 3.6 -12.8°
Enters shadow 22:06:22 10° 199° (SSW) 1,950 4.7 -13.1°
